TimeEDT,TemperatureF,Dew PointF,Humidity,Sea Level PressureIn,VisibilityMPH,Wind Direction,Wind SpeedMPH,Gust SpeedMPH,PrecipitationIn,Events,Conditions,WindDirDegrees,DateUTC
12:53 AM,82.0,72.0,71,30.12,10.0,East,8.1,-,N/A,,Clear,80,2013-07-09 04:53:00
1:53 AM,82.0,72.0,71,30.11,10.0,NE,3.5,-,N/A,,Clear,40,2013-07-09 05:53:00
2:53 AM,81.0,73.0,77,30.10,10.0,NE,4.6,-,N/A,,Clear,50,2013-07-09 06:53:00
3:53 AM,81.0,73.0,77,30.08,10.0,NE,5.8,-,N/A,,Partly Cloudy,40,2013-07-09 07:53:00
4:53 AM,81.0,73.0,77,30.08,10.0,NE,4.6,-,N/A,,Clear,40,2013-07-09 08:53:00
5:53 AM,81.0,73.9,79,30.08,10.0,NNE,4.6,-,N/A,,Clear,30,2013-07-09 09:53:00
6:53 AM,81.0,72.0,74,30.09,10.0,ENE,5.8,-,N/A,,Clear,60,2013-07-09 10:53:00
7:53 AM,82.0,73.9,76,30.10,10.0,East,5.8,-,N/A,,Clear,80,2013-07-09 11:53:00
8:53 AM,84.0,75.0,74,30.12,10.0,NE,6.9,-,N/A,,Scattered Clouds,50,2013-07-09 12:53:00
9:53 AM,84.9,73.0,67,30.12,10.0,NE,8.1,-,N/A,,Clear,50,2013-07-09 13:53:00
10:53 AM,84.0,73.9,72,30.13,10.0,East,10.4,-,N/A,,Scattered Clouds,100,2013-07-09 14:53:00
11:02 AM,82.4,73.4,74,30.14,10.0,ESE,10.4,-,N/A,,Mostly Cloudy,110,2013-07-09 15:02:00
11:22 AM,84.2,71.6,66,30.14,10.0,ESE,11.5,-,N/A,,Scattered Clouds,110,2013-07-09 15:22:00
11:53 AM,87.1,72.0,61,30.14,10.0,ESE,10.4,-,N/A,,Clear,110,2013-07-09 15:53:00
12:53 PM,84.0,72.0,67,30.13,10.0,ESE,9.2,18.4,N/A,,Mostly Cloudy,110,2013-07-09 16:53:00
1:07 PM,78.8,69.8,74,30.13,1.8,NW,8.1,17.3,0.03,Rain,Heavy Rain,320,2013-07-09 17:07:00
1:20 PM,78.8,71.6,78,30.13,2.0,West,6.9,-,0.13,Rain,Light Rain,270,2013-07-09 17:20:00
1:29 PM,78.8,73.4,83,30.13,6.0,Calm,Calm,-,0.15,Rain,Light Rain,0,2013-07-09 17:29:00
1:36 PM,82.4,73.4,74,30.12,10.0,Calm,Calm,-,0.15,,Scattered Clouds,0,2013-07-09 17:36:00
1:53 PM,82.9,75.0,77,30.12,10.0,South,3.5,-,0.15,,Clear,170,2013-07-09 17:53:00
2:53 PM,84.0,73.9,72,30.11,10.0,SSE,6.9,-,N/A,,Clear,160,2013-07-09 18:53:00
3:53 PM,84.9,73.0,67,30.10,10.0,East,8.1,-,N/A,,Overcast,100,2013-07-09 19:53:00
4:33 PM,75.2,68.0,78,30.10,1.8,North,4.6,-,0.07,Rain,Heavy Rain,10,2013-07-09 20:33:00
4:36 PM,75.2,69.8,83,30.10,5.0,Calm,Calm,-,0.09,Rain,Rain,0,2013-07-09 20:36:00
4:53 PM,79.0,72.0,79,30.10,5.0,WNW,9.2,-,0.09,,Haze,300,2013-07-09 20:53:00
5:53 PM,82.0,73.0,74,30.08,10.0,NW,3.5,-,N/A,,Clear,320,2013-07-09 21:53:00
6:53 PM,82.9,75.0,77,30.06,10.0,NNE,5.8,-,N/A,,Clear,30,2013-07-09 22:53:00
7:53 PM,82.0,73.9,76,30.05,10.0,East,3.5,-,N/A,,Clear,80,2013-07-09 23:53:00
8:53 PM,81.0,73.0,77,30.06,10.0,East,5.8,-,N/A,,Clear,80,2013-07-10 00:53:00
9:53 PM,81.0,72.0,74,30.08,10.0,ENE,4.6,-,N/A,,Clear,70,2013-07-10 01:53:00
10:53 PM,81.0,72.0,74,30.09,10.0,Calm,Calm,-,N/A,,Clear,0,2013-07-10 02:53:00
11:53 PM,81.0,73.0,77,30.09,10.0,Calm,Calm,-,N/A,,Clear,0,2013-07-10 03:53:00